SR5NLK-1 Weather Reports


time (UTC)temp
C
wind
direction
speed
KPH
gust
KPH
rain 1hr
cm
rain 24hr
cm
rain mn
cm
humidity
%
barometer
mb
20260902093944 24 247 20.9 20.9 0.00 0.10 0.00 53 1028.0
20260902093445 23 247 12.9 22.5 0.00 0.10 0.00 54 1028.0
20260902092945 23 270 14.5 27.4 0.00 0.10 0.00 53 1037.5
20260902092445 24 292 16.1 24.1 0.00 0.10 0.00 54 1015.4
20260902091945 23 180 9.7 24.1 0.00 0.10 0.00 54 1034.3
20260902091544 23 225 9.7 24.1 0.00 0.10 0.00 55 1056.4
20260902091445 23 225 9.7 17.7 0.00 0.10 0.00 55 1031.2
20260902090945 23 247 8.0 24.1 0.00 0.10 0.00 54 1021.7
20260902090445 23 202 4.8 27.4 0.00 0.10 0.00 54 1031.1
20260902085945 23 270 27.4 27.4 0.00 0.10 0.00 54 1028.0
20260902085445 23 337 4.8 24.1 0.00 0.10 0.00 55 1037.5
20260902084445 24 270 11.3 19.3 0.00 0.10 0.00 54 1043.7
20260902084244 25 315 9.7 19.3 0.00 0.10 0.00 54 1043.8
20260902083945 25 247 14.5 14.5 0.00 0.10 0.00 54 1046.9
20260902083445 25 292 6.4 20.9 0.00 0.10 0.00 53 1050.1
20260902082945 26 292 6.4 20.9 0.00 0.10 0.00 53 1031.1
20260902081945 26 270 3.2 12.9 0.00 0.10 0.00 54 1062.7
20260902081445 26 247 9.7 12.9 0.00 0.10 0.00 55 1024.8
20260902080944 26 270 4.8 16.1 0.00 0.10 0.00 55 1031.2
20260902075945 25 247 4.8 11.3 0.00 0.10 0.00 57 1031.1
20260902075445 25 270 9.7 12.9 0.00 0.10 0.00 56 1018.5
20260902074945 25 270 9.7 17.7 0.00 0.10 0.00 57 1031.1
20260902074445 25 247 6.4 17.7 0.00 0.10 0.00 57 1024.8
20260902073945 25 247 9.7 14.5 0.00 0.10 0.00 59 1028.0
20260902073644 24 270 8.0 16.1 0.00 0.10 0.00 60 1031.2
20260902073445 24 225 8.0 16.1 0.00 0.10 0.00 60 1040.6
20260902072945 24 247 6.4 17.7 0.00 0.10 0.00 60 1050.1
20260902072445 23 202 12.9 14.5 0.00 0.10 0.00 61 1031.2
20260902071945 23 202 12.9 17.7 0.00 0.10 0.00 61 1043.8
20260902071445 23 270 6.4 14.5 0.00 0.10 0.00 62 1046.9
20260902070945 23 270 9.7 9.7 0.00 0.10 0.00 66 1053.2
20260902070344 22 270 1.6 9.7 0.00 0.10 0.00 67 1050.1
20260902065945 21 225 8.0 12.9 0.00 0.10 0.00 67 1031.1
20260902064945 21 270 4.8 9.7 0.00 0.10 0.00 68 1043.8
20260902064445 21 202 4.8 12.9 0.00 0.10 0.00 67 1043.7
20260902063945 22 202 9.7 12.9 0.00 0.10 0.00 67 1040.6
20260902063445 21 180 4.8 11.3 0.00 0.10 0.00 70 1072.1
20260902063044 21 270 11.3 12.9 0.00 0.10 0.00 72 1028.0
20260902062945 20 202 6.4 12.9 0.00 0.10 0.00 73 1046.9
20260902062445 20 157 3.2 11.3 0.00 0.10 0.00 70 1056.3
20260902061945 21 225 9.7 14.5 0.00 0.10 0.00 69 1052.2
20260902061445 21 202 8.0 14.5 0.00 0.10 0.00 73 1044.9
20260902060945 19 180 4.8 9.7 0.00 0.10 0.00 77 1056.4
20260902060445 18 247 9.7 12.9 0.00 0.10 0.00 72 1022.5
20260902055945 19 202 6.4 14.5 0.00 0.10 0.00 71 1048.3
20260902055744 19 225 8.0 14.5 0.00 0.10 0.00 70 1055.5
20260902055445 20 247 3.2 14.5 0.00 0.10 0.00 69 1074.9
20260902054945 21 270 6.4 11.3 0.00 0.10 0.00 69 1068.6
20260902054445 21 202 4.8 8.0 0.00 0.10 0.00 72 1042.8
20260902053945 20 247 0.0 8.0 0.00 0.10 0.00 75 1068.6
20260902053445 20 225 4.8 11.3 0.00 0.10 0.00 78 1065.8
20260902052945 18 157 4.8 11.3 0.00 0.10 0.00 78 1061.3
20260902052444 18 202 4.8 12.9 0.00 0.10 0.00 78 1070.5
20260902051945 18 225 12.9 12.9 0.00 0.10 0.00 80 1065.9
20260902051445 18 202 6.4 12.9 0.00 0.10 0.00 82 1043.8
20260902050945 18 202 4.8 12.9 0.00 0.10 0.00 85 1075.2
20260902050445 18 202 9.7 12.9 0.00 0.10 0.00 87 1056.6
20260902045945 17 202 4.8 11.3 0.00 0.10 0.00 90 1056.3
20260902045445 17 180 6.4 9.7 0.00 0.10 0.00 91 1059.5
20260902045144 17 202 6.4 9.7 0.00 0.10 0.00 92 1084.6
20260902044945 16 202 8.0 8.0 0.00 0.10 0.00 92 1069.0
20260902044445 15 202 4.8 6.4 0.00 0.10 0.00 91 1081.6
20260902043945 14 180 0.0 6.4 0.00 0.10 0.00 90 1078.4
20260902043445 13 202 3.2 6.4 0.00 0.10 0.00 89 1065.8
20260902043032 13 202 1.6 8.0 0.00 0.10 0.00 89 1053.2
20260902042945 13 202 1.6 8.0 0.00 0.10 0.00 89 1053.2
20260902042445 13 180 3.2 4.8 0.00 0.10 0.00 88 1076.8
20260902041945 13 202 3.2 6.4 0.00 0.10 0.00 88 1030.3
20260902041844 13 180 4.8 6.4 0.00 0.10 0.00 88 1068.9
20260902041445 13 202 4.8 6.4 0.00 0.10 0.00 88 1072.1
20260902040945 13 202 1.6 3.2 0.00 0.10 0.00 88 1031.9
20260902040445 13 225 1.6 3.2 0.00 0.10 0.00 88 1070.5
20260902035945 13 180 1.6 3.2 0.00 0.10 0.00 88 1056.4
20260902035445 13 180 3.2 6.4 0.00 0.10 0.00 88 1064.2
20260902034945 13 180 3.2 8.0 0.00 0.10 0.00 88 1080.0
20260902034544 13 225 6.4 6.4 0.00 0.10 0.00 88 1085.4
20260902034445 13 202 3.2 6.4 0.00 0.10 0.00 88 1071.2
20260902033945 13 202 1.6 6.4 0.00 0.10 0.00 88 1086.2
20260902033445 13 225 3.2 8.0 0.00 0.10 0.00 88 1059.5
20260902033104 13 202 6.4 12.9 0.00 0.10 0.00 88 1073.7
20260902032945 13 225 3.2 9.7 0.00 0.10 0.00 88 1033.4
20260902032445 13 202 6.4 12.9 0.00 0.10 0.00 88 1073.7
20260902032018 13 225 4.8 8.0 0.00 0.10 0.00 88 1062.7
20260902031945 13 225 4.8 8.0 0.00 0.10 0.00 88 1062.7
20260902031445 13 225 4.8 11.3 0.00 0.10 0.00 88 1022.3
20260902031244 13 202 8.0 17.7 0.00 0.10 0.00 88 1067.4
20260902030945 13 247 3.2 17.7 0.00 0.10 0.00 88 1057.9
20260902030445 13 225 3.2 9.7 0.00 0.10 0.00 88 1056.4
20260902025945 13 180 8.0 11.3 0.00 0.10 0.00 88 1077.7
20260902025445 14 202 4.8 11.3 0.00 0.10 0.00 88 1011.1
20260902024945 14 202 8.0 11.3 0.00 0.10 0.00 88 1050.1
20260902024445 14 247 8.0 11.3 0.00 0.10 0.00 88 1078.4
20260902023944 13 202 6.4 11.3 0.00 0.10 0.00 88 1072.2
20260902023445 13 180 4.8 8.0 0.00 0.10 0.00 88 1065.8
20260902022945 13 180 4.8 9.7 0.00 0.10 0.00 88 1082.8
20260902022445 13 180 4.8 9.7 0.00 0.10 0.00 87 1053.2
20260902021945 13 202 3.2 9.7 0.00 0.10 0.00 87 1084.6
20260902021445 13 180 4.8 6.4 0.00 0.10 0.00 87 1059.6
20260902020945 13 202 3.2 11.3 0.00 0.10 0.00 87 1050.1
20260902020644 13 202 6.4 11.3 0.00 0.10 0.00 87 1075.3
20260902020445 13 202 9.7 9.7 0.00 0.10 0.00 87 1036.7
20260902015945 13 202 6.4 11.3 0.00 0.10 0.00 87 1022.4
20260902015445 13 202 8.0 9.7 0.00 0.10 0.00 87 1034.9
20260902014945 13 180 6.4 9.7 0.00 0.10 0.00 87 1004.7
20260902014445 13 180 6.4 12.9 0.00 0.10 0.00 87 1078.4
20260902013945 13 225 12.9 12.9 0.00 0.10 0.00 87 1063.9
20260902013445 14 225 9.7 12.9 0.00 0.10 0.00 87 1031.0
20260902013344 14 180 9.7 16.1 0.00 0.10 0.00 87 1056.4
20260902012945 14 225 9.7 16.1 0.00 0.10 0.00 87 1070.5
20260902012445 14 202 12.9 16.1 0.00 0.10 0.00 86 1050.1
20260902011945 14 202 6.4 12.9 0.00 0.10 0.00 86 1056.4
20260902011445 14 202 9.7 16.1 0.00 0.10 0.00 86 1069.0
20260902010945 14 270 9.7 14.5 0.00 0.10 0.00 86 1056.4
20260902010446 14 202 3.2 11.3 0.00 0.10 0.00 86 1027.2
20260902010044 14 247 6.4 14.5 0.00 0.10 0.00 87 1034.2
20260902005945 14 247 3.2 14.5 0.00 0.10 0.00 87 1034.2
20260902005445 14 247 6.4 16.1 0.00 0.10 0.00 86 1059.5
20260902004945 14 225 16.1 16.1 0.00 0.10 0.00 86 1057.9
20260902004445 14 180 8.0 14.5 0.00 0.10 0.00 86 1035.1
20260902003946 14 225 4.8 12.9 0.00 0.10 0.00 86 1075.3
20260902003445 14 202 6.4 11.3 0.00 0.10 0.00 86 1062.7
20260902002945 14 202 8.0 11.3 0.00 0.10 0.00 86 1062.7
20260902002744 14 180 8.0 8.0 0.00 0.10 0.00 86 1065.8
20260902002445 14 202 6.4 6.4 0.00 0.10 0.00 86 1065.8
20260902001945 15 202 4.8 6.4 0.00 0.10 0.00 86 1059.3
20260902001445 15 202 6.4 9.7 0.00 0.10 0.00 86 1056.4
20260902000945 15 225 4.8 14.5 0.00 0.10 0.00 86 1059.5
20260902000445 15 247 14.5 14.5 0.00 0.10 0.00 86 1086.2
20260901235945 15 202 6.4 11.3 0.00 0.10 0.00 86 1023.0
20260901235445 15 202 6.4 9.7 0.00 0.10 0.00 86 1078.3
20260901234946 15 202 8.0 9.7 0.00 0.10 0.00 86 1059.5
20260901234446 15 225 8.0 9.7 0.00 0.10 0.00 86 1053.2
20260901233946 15 225 8.0 11.3 0.00 0.10 0.00 86 1046.9
20260901233446 15 225 6.4 9.7 0.00 0.10 0.00 86 1050.1
20260901232946 15 225 6.4 9.7 0.00 0.10 0.00 86 1065.8
20260901232446 15 247 6.4 9.7 0.00 0.10 0.00 86 1070.5
20260901232145 15 225 9.7 12.9 0.00 0.10 0.00 86 1046.9
20260901231946 15 225 6.4 12.9 0.00 0.10 0.00 86 1073.6
20260901231446 15 247 8.0 17.7 0.00 0.10 0.00 86 1062.7
20260901230946 15 202 6.4 11.3 0.00 0.10 0.00 86 1059.5
20260901230446 15 202 6.4 14.5 0.00 0.10 0.00 86 1059.5
20260901225946 15 225 4.8 16.1 0.00 0.10 0.00 86 1073.7
20260901225446 15 202 8.0 14.5 0.00 0.10 0.00 86 1028.8
20260901224946 15 225 4.8 12.9 0.00 0.10 0.00 86 1044.5
20260901224845 15 225 9.7 12.9 0.00 0.10 0.00 86 1053.2
20260901224446 15 270 8.0 12.9 0.00 0.10 0.00 86 1064.2
20260901223946 15 247 14.5 14.5 0.00 0.10 0.00 86 1056.3
20260901223446 15 247 4.8 12.9 0.00 0.10 0.00 86 1067.4
20260901222946 15 247 11.3 12.9 0.00 0.10 0.00 86 1059.5
20260901222446 15 225 4.8 12.9 0.00 0.10 0.00 86 1081.5
20260901221946 15 225 9.7 12.9 0.00 0.10 0.00 86 1064.3
20260901221545 15 270 12.9 12.9 0.00 0.10 0.00 86 1073.6
20260901221446 15 225 8.0 12.9 0.00 0.10 0.00 86 1081.4
20260901220946 15 270 11.3 16.1 0.00 0.10 0.00 86 1075.2
20260901220446 15 247 14.5 16.1 0.00 0.10 0.00 86 1065.2
20260901215946 15 225 8.0 16.1 0.00 0.10 0.00 86 1084.7
20260901215446 14 225 4.8 16.1 0.00 0.10 0.00 85 1062.6
20260901214946 14 225 6.4 12.9 0.00 0.10 0.00 85 1050.0
20260901214446 15 270 8.0 14.5 0.00 0.10 0.00 85 1069.0
20260901214245 15 202 4.8 11.3 0.00 0.10 0.00 85 1046.9
20260901213946 15 225 8.0 11.3 0.00 0.10 0.00 85 1073.9
20260901213446 15 202 9.7 14.5 0.00 0.10 0.00 85 1076.8
20260901212946 15 202 9.7 12.9 0.00 0.10 0.00 85 1070.5
20260901212446 15 247 12.9 12.9 0.00 0.10 0.00 85 1064.8
20260901211946 15 247 8.0 14.5 0.00 0.10 0.00 84 1078.4
20260901211446 15 202 9.7 12.9 0.00 0.10 0.00 84 991.7
20260901210945 15 225 12.9 14.5 0.00 0.10 0.00 84 1059.5
20260901210446 15 202 12.9 12.9 0.00 0.10 0.00 84 1051.7
20260901205946 15 202 8.0 9.7 0.00 0.10 0.00 84 1059.5
20260901205446 15 247 8.0 9.7 0.00 0.10 0.00 84 1059.5
20260901204946 15 225 6.4 9.7 0.00 0.10 0.00 83 1072.2
20260901204446 15 225 3.2 6.4 0.00 0.10 0.00 83 1048.5
20260901203946 15 225 3.2 8.0 0.00 0.10 0.00 83 1080.0
20260901203645 15 225 3.2 8.0 0.00 0.10 0.00 83 1076.8
20260901203446 15 247 3.2 8.0 0.00 0.10 0.00 83 1050.1
20260901202946 15 247 6.4 8.0 0.00 0.10 0.00 83 1072.1
20260901202446 15 247 4.8 11.3 0.00 0.10 0.00 82 1069.0
20260901201946 15 247 6.4 11.3 0.00 0.10 0.00 82 1064.2
20260901201446 15 202 6.4 9.7 0.00 0.10 0.00 82 1067.5
20260901200946 15 157 3.2 11.3 0.00 0.10 0.00 82 1053.2
20260901200446 15 202 6.4 11.3 0.00 0.10 0.00 82 1079.5
20260901200345 15 202 8.0 11.3 0.00 0.10 0.00 82 1013.0
20260901195946 15 202 9.7 17.7 0.00 0.10 0.00 82 1057.9
20260901195446 16 202 8.0 12.9 0.00 0.10 0.00 81 1065.8
20260901194946 16 202 4.8 12.9 0.00 0.10 0.00 81 1069.0
20260901194446 16 202 6.4 14.5 0.00 0.10 0.00 81 1081.5
20260901193946 16 135 3.2 11.3 0.00 0.10 0.00 81 1050.1
20260901193446 16 202 6.4 12.9 0.00 0.10 0.00 80 1075.3
20260901193045 16 202 6.4 11.3 0.00 0.10 0.00 80 1062.7
20260901192946 16 202 4.8 11.3 0.00 0.10 0.00 80 1059.5
20260901192446 16 202 4.8 9.7 0.00 0.10 0.00 79 1046.9
20260901191946 16 247 3.2 9.7 0.00 0.10 0.00 79 1062.7
20260901191446 16 202 4.8 9.7 0.00 0.10 0.00 79 1081.5
20260901190946 16 202 6.4 9.7 0.00 0.10 0.00 79 1065.5
20260901190446 16 202 6.4 9.7 0.00 0.10 0.00 79 1050.1
20260901185946 16 202 8.0 8.0 0.00 0.10 0.00 79 1053.2
20260901185745 16 180 6.4 11.3 0.00 0.10 0.00 79 1065.8
20260901185447 16 202 6.4 11.3 0.00 0.10 0.00 78 1070.7
20260901184946 16 225 6.4 14.5 0.00 0.10 0.00 78 1043.8
20260901184446 16 202 8.0 11.3 0.00 0.10 0.00 77 1042.8
20260901183946 16 180 11.3 16.1 0.00 0.10 0.00 77 1025.6
20260901183446 17 202 16.1 19.3 0.00 0.10 0.00 77 1056.4
20260901182946 17 225 11.3 16.1 0.00 0.10 0.00 76 1046.9
20260901182445 17 157 8.0 12.9 0.00 0.10 0.00 76 1081.5
20260901181946 17 292 9.7 11.3 0.00 0.10 0.00 76 1039.8
20260901181446 17 247 3.2 16.1 0.00 0.10 0.00 75 1063.3
20260901180946 17 225 4.8 24.1 0.00 0.10 0.00 75 1065.8
20260901180446 17 202 14.5 14.5 0.00 0.10 0.00 74 1070.2
20260901175946 17 202 8.0 16.1 0.00 0.10 0.00 74 1059.5
20260901175446 18 225 4.8 17.7 0.00 0.10 0.00 73 1048.7
20260901175145 18 247 6.4 19.3 0.00 0.10 0.00 72 1084.7
20260901174946 18 225 4.8 19.3 0.00 0.10 0.00 72 1065.8
20260901174446 18 225 3.2 19.3 0.00 0.10 0.00 71 1053.2
20260901173946 18 202 14.5 20.9 0.00 0.10 0.00 70 1066.0
20260901173446 18 225 6.4 16.1 0.00 0.10 0.00 69 1054.8
20260901172946 18 247 14.5 16.1 0.00 0.10 0.00 69 1013.0
20260901172446 18 180 8.0 17.7 0.00 0.10 0.00 68 1056.4
20260901171946 18 180 6.4 14.5 0.00 0.10 0.00 67 1030.3
20260901171845 18 270 12.9 14.5 0.00 0.10 0.00 68 1064.3
20260901171446 18 270 8.0 14.5 0.00 0.10 0.00 67 1073.7
20260901170946 19 225 12.9 20.9 0.00 0.10 0.00 66 1062.7
20260901170446 19 247 14.5 17.7 0.00 0.10 0.00 65 1046.9
20260901165946 20 225 9.7 16.1 0.00 0.10 0.00 64 1055.2
20260901165446 20 247 6.4 12.9 0.00 0.10 0.00 64 1040.6
20260901164946 20 225 9.7 11.3 0.00 0.10 0.00 63 1076.8
20260901164545 20 225 9.7 9.7 0.00 0.10 0.00 63 1070.5
20260901164446 20 225 6.4 9.7 0.00 0.10 0.00 63 1067.1
20260901163946 20 202 6.4 8.0 0.00 0.10 0.00 63 1053.2
20260901163446 20 292 3.2 8.0 0.00 0.10 0.00 63 1046.9
20260901162946 20 225 3.2 9.7 0.00 0.10 0.00 63 1084.7
20260901162446 20 270 6.4 6.4 0.00 0.10 0.00 62 1028.7
20260901161946 20 315 4.8 12.9 0.00 0.10 0.00 62 1065.8
20260901161446 20 270 4.8 12.9 0.00 0.10 0.00 61 1069.0
20260901161245 20 225 4.8 12.9 0.00 0.10 0.00 61 1070.5
20260901160946 20 270 6.4 20.9 0.00 0.10 0.00 61 1053.2
20260901160446 21 22 4.8 19.3 0.00 0.10 0.00 60 1083.1
20260901155946 21 270 12.9 25.7 0.00 0.10 0.00 60 1084.7
20260901154947 21 270 9.7 17.7 0.00 0.10 0.00 60 1062.7
20260901154446 21 315 9.7 27.4 0.00 0.10 0.00 59 1013.0
20260901153945 21 270 12.9 27.4 0.00 0.10 0.00 58 1076.9
20260901153446 21 270 11.3 27.4 0.00 0.10 0.00 57 1026.1
20260901152946 21 270 25.7 32.2 0.00 0.10 0.00 57 1067.4
20260901152447 21 270 22.5 32.2 0.00 0.10 0.00 56 1056.4
20260901151947 21 270 22.5 40.2 0.00 0.10 0.00 56 1050.1
20260901151446 21 247 27.4 29.0 0.00 0.10 0.00 56 983.8
20260901150946 22 247 29.0 30.6 0.00 0.10 0.00 56 1068.6
20260901150645 22 270 16.1 37.0 0.00 0.10 0.00 56 1047.6
20260901150446 22 270 19.3 37.0 0.00 0.10 0.00 57 1038.2
20260901145946 22 225 25.7 33.8 0.00 0.10 0.00 57 1046.9
20260901145446 21 225 14.5 27.4 0.00 0.10 0.00 59 1064.2
20260901144946 22 225 4.8 29.0 0.00 0.10 0.00 58 1019.3
20260901144447 22 247 11.3 24.1 0.00 0.10 0.00 57 1065.8
20260901143946 22 225 16.1 33.8 0.00 0.10 0.00 57 1073.8
20260901143446 22 225 19.3 27.4 0.00 0.10 0.00 60 1016.2
20260901143345 22 270 27.4 27.4 0.00 0.10 0.00 60 1075.3
20260901142946 22 337 6.4 25.7 0.00 0.10 0.00 60 1073.7
20260901142447 21 225 20.9 27.4 0.00 0.10 0.00 59 1056.5
20260901141947 21 270 14.5 29.0 0.00 0.10 0.00 60 1055.2
20260901141447 21 202 16.1 33.8 0.00 0.10 0.00 60 1075.2
20260901140947 21 270 9.7 29.0 0.00 0.10 0.00 59 1020.9
20260901140447 22 270 25.7 29.0 0.00 0.10 0.00 59 1065.8
20260901140046 22 247 12.9 25.7 0.00 0.10 0.00 59 1056.4
20260901135947 22 292 16.1 25.7 0.00 0.20 0.00 59 1050.1
20260901135447 22 202 11.3 30.6 0.00 0.20 0.00 61 1067.3
20260901134447 21 270 17.7 27.4 0.00 0.20 0.00 63 1043.8
20260901133947 21 247 27.4 27.4 0.00 0.20 0.00 65 1090.9
20260901133447 21 270 29.0 33.8 0.00 0.20 0.00 66 1037.4
20260901132947 21 225 14.5 19.3 0.00 0.20 0.00 67 1056.4
20260901132746 21 247 3.2 19.3 0.00 0.20 0.00 67 1061.1
20260901132447 21 180 16.1 20.9 0.00 0.20 0.00 67 1070.7
20260901131447 21 270 24.1 30.6 0.00 0.20 0.00 69 1056.4
20260901130947 21 270 29.0 30.6 0.00 0.20 0.00 70 1055.0
20260901130447 20 247 20.9 30.6 0.00 0.20 0.00 70 1068.9
20260901125947 20 247 11.3 24.1 0.05 0.20 0.00 71 1067.6
20260901125446 20 270 8.0 22.5 0.05 0.20 0.00 72 1083.1
20260901124947 20 270 9.7 33.8 0.05 0.20 0.00 72 1067.3
20260901124447 20 247 12.9 30.6 0.05 0.20 0.00 72 1080.1
20260901123947 20 270 8.0 32.2 0.05 0.20 0.00 73 1050.1
20260901123447 20 270 19.3 27.4 0.05 0.20 0.00 74 1078.6
20260901122947 20 157 8.0 29.0 0.05 0.20 0.00 74 1072.1
20260901122447 19 247 29.0 29.0 0.05 0.20 0.00 73 1084.7
20260901122146 19 247 12.9 24.1 0.05 0.20 0.00 73 1064.3
20260901121947 19 180 6.4 27.4 0.10 0.20 0.00 71 1053.2
20260901121447 19 225 20.9 27.4 0.10 0.20 0.00 69 1042.4
20260901120947 20 270 12.9 29.0 0.10 0.20 0.00 66 1076.8
20260901120447 21 270 27.4 27.4 0.05 0.15 0.00 64 1076.8
20260901115947 21 270 12.9 25.7 0.05 0.15 0.00 64 1011.4
20260901115447 21 247 12.9 32.2 0.05 0.15 0.00 65 1031.2
20260901114947 21 247 22.5 30.6 0.05 0.15 0.00 66 1073.4
20260901114846 20 270 17.7 30.6 0.05 0.15 0.00 66 1053.1
20260901114447 20 270 29.0 35.4 0.05 0.15 0.00 67 1073.7
20260901113947 20 225 19.3 33.8 0.05 0.15 0.00 67 1054.8
20260901113447 21 225 19.3 29.0 0.05 0.15 0.00 67 1035.0
20260901112947 21 270 9.7 27.4 0.05 0.15 0.00 67 1065.8
20260901112447 21 247 6.4 30.6 0.05 0.15 0.00 63 1009.8
20260901111947 22 292 19.3 38.6 0.00 0.10 0.00 58 1065.8
20260901111546 23 180 17.7 30.6 0.00 0.10 0.00 56 1053.2
20260901111447 23 225 12.9 30.6 0.00 0.10 0.00 55 1064.2
20260901110948 23 270 14.5 27.4 0.00 0.10 0.00 56 1016.2
20260901105947 22 247 9.7 32.2 0.00 0.10 0.00 61 1044.5
20260901105447 21 247 14.5 27.4 0.00 0.10 0.00 62 1073.7
20260901104947 21 270 22.5 29.0 0.00 0.10 0.00 61 1062.7
20260901104447 21 247 29.0 30.6 0.00 0.10 0.00 60 1051.6
20260901104246 21 247 17.7 30.6 0.00 0.10 0.00 60 1081.5
20260901103947 21 225 30.6 30.6 0.00 0.10 0.00 59 1063.9
20260901103447 21 202 22.5 35.4 0.00 0.10 0.00 57 1073.7
20260901102947 22 202 27.4 32.2 0.00 0.10 0.00 56 1046.9
20260901102447 22 225 19.3 27.4 0.00 0.10 0.00 56 1019.3
20260901101947 22 292 14.5 29.0 0.00 0.10 0.00 54 1059.5
20260901101447 23 247 14.5 22.5 0.00 0.10 0.00 53 1052.2
20260901100946 23 202 19.3 20.9 0.00 0.10 0.00 52 1073.6
20260901100447 24 157 8.0 27.4 0.00 0.10 0.00 52 1040.6
20260901095947 24 202 17.7 27.4 0.00 0.10 0.00 53 1056.4
20260901095447 23 157 8.0 27.4 0.00 0.10 0.00 53 1062.7
20260901094947 23 270 16.1 32.2 0.00 0.10 0.00 52 1024.0
20260901094447 23 292 9.7 33.8 0.00 0.10 0.00 52 1065.8